EW2175 Weather Reports


Display with metric or nautical units.
time (UTC)temp
F
wind
direction
speed
MPH
gust
MPH
rain 1hr
in
rain 24hr
in
rain mn
in
humidity
%
barometer
mb
20260505193015 58 182 4.0 10.0 0.00 0.03 0.03 79 1006.8
20260505191512 59 212 2.0 9.0 0.00 0.03 0.03 78 1006.7
20260505190014 59 146 2.0 8.0 0.00 0.03 0.03 79 1006.6
20260505184517 59 227 2.0 9.0 0.00 0.03 0.03 79 1006.4
20260505183011 60 192 1.0 9.0 0.00 0.03 0.03 78 1006.3
20260505181510 61 239 2.0 12.0 0.00 0.03 0.03 77 1006.4
20260505180011 62 208 3.0 7.0 0.00 0.03 0.03 73 1006.2
20260505174508 62 118 1.0 7.0 0.00 0.04 0.03 71 1006.1
20260505173008 63 212 2.0 9.0 0.00 0.04 0.03 70 1006.0
20260505171507 62 192 3.0 11.0 0.00 0.04 0.03 71 1006.1
20260505170009 62 162 4.0 10.0 0.00 0.04 0.03 70 1006.2
20260505164505 62 201 3.0 9.0 0.00 0.04 0.03 72 1006.1
20260505163004 61 159 5.0 11.0 0.00 0.04 0.03 76 1006.2
20260505161504 60 159 1.0 9.0 0.00 0.04 0.03 82 1005.9
20260505153003 59 208 3.0 6.0 0.03 0.04 0.03 86 1006.2
20260505151502 59 224 1.0 7.0 0.03 0.04 0.03 85 1006.1
20260505124552 65 321 0.0 2.0 0.00 0.01 0.00 68 1006.4
20260505123050 64 336 0.0 0.0 0.00 0.01 0.00 71 1006.5
20260505121610 63 255 0.0 0.0 0.00 0.01 0.00 73 1006.6
20260505120033 62 227 0.0 0.0 0.00 0.01 0.00 74 1006.7
20260505114534 62 254 0.0 0.0 0.00 0.01 0.00 74 1006.9
20260505113031 62 222 0.0 0.0 0.00 0.01 0.00 75 1007.0
20260505111535 62 272 0.0 0.0 0.00 0.01 0.00 75 1007.1
20260505101524 61 324 0.0 0.0 0.00 0.01 0.00 78 1007.2
20260505100034 61 322 0.0 0.0 0.00 0.01 0.00 79 1007.2
20260505094523 61 321 0.0 0.0 0.00 0.01 0.00 77 1007.2
20260505093028 61 345 0.0 0.0 0.00 0.01 0.00 77 1007.1
20260505091527 61 347 0.0 0.0 0.00 0.01 0.00 78 1007.3
20260505090020 61 329 0.0 0.0 0.00 0.01 0.00 83 1007.5
20260505084518 61 324 0.0 0.0 0.00 0.01 0.00 83 1007.6
20260505083015 60 321 0.0 0.0 0.00 0.01 0.00 83 1007.7
20260505081515 60 319 0.0 0.0 0.00 0.01 0.00 84 1007.8
20260505080011 59 319 0.0 0.0 0.00 0.01 0.00 86 1007.9
20260505074509 59 334 0.0 0.0 0.00 0.01 0.00 87 1007.9
20260505073003 58 337 0.0 0.0 0.00 0.01 0.00 89 1008.0
20260505071600 57 225 0.0 0.0 0.00 0.01 0.00 89 1008.1
20260505070104 56 225 0.0 0.0 0.00 0.01 0.00 91 1008.2
20260505064607 56 225 0.0 0.0 0.00 0.01 0.00 91 1008.3
20260505063053 55 225 0.0 0.0 0.00 0.01 0.00 91 1008.3
20260505061551 55 225 0.0 0.0 0.00 0.01 0.00 91 1008.5
20260505060049 54 213 0.0 0.0 0.00 0.01 0.00 91 1008.5
20260505054614 54 218 0.0 0.0 0.00 0.01 0.00 91 1008.6
20260505053050 54 221 0.0 0.0 0.00 0.01 0.00 90 1008.5
20260505051546 54 234 0.0 0.0 0.00 0.01 0.00 90 1008.4
20260505041548 53 36 0.0 0.0 0.00 0.01 0.00 87 1008.3
20260505040042 53 36 0.0 0.0 0.00 0.01 0.00 87 1008.3
20260505034538 53 36 0.0 0.0 0.00 0.01 0.00 88 1008.2
20260505033037 53 62 0.0 0.0 0.00 0.01 0.00 88 1008.3
20260505031539 54 31 0.0 0.0 0.00 0.01 0.00 88 1008.4
20260505030038 54 30 0.0 0.0 0.00 0.01 0.00 88 1008.5
20260505024530 54 30 0.0 0.0 0.00 0.01 0.00 89 1008.6
20260505023028 54 30 0.0 0.0 0.00 0.01 0.00 89 1008.8
20260505021525 54 30 0.0 0.0 0.00 0.01 0.00 88 1008.9
20260505020029 55 25 0.0 0.0 0.00 0.01 0.00 88 1009.1
20260505014523 55 74 0.0 0.0 0.00 0.01 0.00 87 1009.1
20260505013021 55 74 0.0 0.0 0.00 0.01 0.00 87 1009.4
20260505011520 55 74 0.0 0.0 0.00 0.01 0.00 86 1009.3
20260505010017 55 43 0.0 0.0 0.00 0.01 0.00 86 1009.5
20260505004514 55 101 0.0 0.0 0.00 0.01 0.00 85 1009.7
20260505003012 55 101 0.0 0.0 0.00 0.01 0.00 86 1009.9
20260505001510 56 101 0.0 0.0 0.00 0.01 0.00 86 1010.0
20260505000012 56 101 0.0 0.0 0.00 0.01 0.00 86 1010.2
20260504234507 56 92 0.0 0.0 0.00 0.01 0.00 86 1010.3
20260504233005 56 163 0.0 0.0 0.00 0.01 0.00 86 1010.4
20260504231503 56 64 0.0 0.0 0.00 0.01 0.00 86 1010.5
20260504230005 56 58 0.0 0.0 0.00 0.01 0.00 87 1010.5
20260504224505 56 53 0.0 0.0 0.00 0.01 0.00 87 1010.6
20260504223200 56 39 0.0 0.0 0.00 0.01 0.00 87 1010.6
20260504221558 57 55 0.0 0.0 0.00 0.01 0.00 87 1010.5
20260504220058 57 38 0.0 0.0 0.00 0.01 0.00 86 1010.6
20260504214555 57 92 0.0 0.0 0.00 0.01 0.01 87 1011.0
20260504213054 57 92 0.0 0.0 0.00 0.01 0.01 86 1011.2
20260504211558 57 92 0.0 0.0 0.00 0.01 0.01 86 1011.4
20260504210101 57 92 0.0 0.0 0.00 0.01 0.01 86 1011.4
20260504204554 58 92 0.0 0.0 0.00 0.01 0.01 86 1011.4
20260504203050 58 92 0.0 0.0 0.00 0.01 0.01 86 1011.4
20260504201550 58 92 0.0 0.0 0.00 0.01 0.01 85 1011.5
20260504200100 58 92 0.0 0.0 0.00 0.01 0.01 85 1011.3
20260504194549 58 92 0.0 0.0 0.00 0.01 0.01 85 1011.3